TimeEDT,TemperatureF,Dew PointF,Humidity,Sea Level PressureIn,VisibilityMPH,Wind Direction,Wind SpeedMPH,Gust SpeedMPH,PrecipitationIn,Events,Conditions,WindDirDegrees,DateUTC
12:15 AM,42.8,30.2,61,30.08,10.0,NNW,5.8,-,N/A,,Overcast,330,2013-03-29 04:15:00
12:55 AM,42.8,30.2,61,30.08,10.0,NW,4.6,-,N/A,,Mostly Cloudy,320,2013-03-29 04:55:00
1:15 AM,42.8,30.2,61,30.08,10.0,NNW,8.1,-,N/A,,Overcast,340,2013-03-29 05:15:00
1:35 AM,41.0,28.4,61,30.08,10.0,NNW,10.4,16.1,N/A,,Overcast,330,2013-03-29 05:35:00
1:55 AM,41.0,28.4,61,30.08,10.0,NNW,10.4,-,N/A,,Scattered Clouds,330,2013-03-29 05:55:00
2:15 AM,39.2,28.4,65,30.08,10.0,NNW,8.1,-,N/A,,Scattered Clouds,330,2013-03-29 06:15:00
2:35 AM,39.2,28.4,65,30.09,10.0,NNW,6.9,-,N/A,,Overcast,330,2013-03-29 06:35:00
2:55 AM,37.4,26.6,65,30.09,10.0,North,5.8,-,N/A,,Mostly Cloudy,360,2013-03-29 06:55:00
3:15 AM,39.2,26.6,61,30.09,10.0,NW,4.6,-,N/A,,Partly Cloudy,310,2013-03-29 07:15:00
3:35 AM,39.2,26.6,61,30.09,10.0,NW,4.6,-,N/A,,Mostly Cloudy,320,2013-03-29 07:35:00
3:55 AM,37.4,26.6,65,30.09,10.0,NW,4.6,-,N/A,,Partly Cloudy,310,2013-03-29 07:55:00
4:15 AM,37.4,26.6,65,30.09,10.0,NW,5.8,-,N/A,,Clear,320,2013-03-29 08:15:00
4:35 AM,37.4,24.8,60,30.08,10.0,NW,5.8,-,N/A,,Clear,310,2013-03-29 08:35:00
4:55 AM,37.4,24.8,60,30.08,10.0,NNW,6.9,-,N/A,,Clear,330,2013-03-29 08:55:00
5:15 AM,37.4,24.8,60,30.08,10.0,NW,5.8,-,N/A,,Clear,320,2013-03-29 09:15:00
5:35 AM,37.4,24.8,60,30.08,10.0,NW,4.6,-,N/A,,Clear,320,2013-03-29 09:35:00
5:45 AM,37.4,24.8,60,30.08,10.0,NNW,5.8,-,N/A,,Clear,330,2013-03-29 09:45:00
6:45 AM,37.4,24.8,60,30.08,10.0,NNW,5.8,-,N/A,,Clear,340,2013-03-29 10:45:00
7:45 AM,39.2,24.8,56,30.09,10.0,NNW,8.1,-,N/A,,Clear,340,2013-03-29 11:45:00
8:45 AM,42.8,26.6,53,30.10,10.0,NNW,8.1,19.6,N/A,,Clear,340,2013-03-29 12:45:00
9:45 AM,44.6,28.4,53,30.11,10.0,North,10.4,16.1,N/A,,Clear,350,2013-03-29 13:45:00
10:45 AM,46.4,28.4,50,30.11,10.0,NNW,9.2,-,N/A,,Clear,340,2013-03-29 14:45:00
11:55 AM,48.2,28.4,46,30.09,10.0,North,10.4,17.3,N/A,,Scattered Clouds,350,2013-03-29 15:55:00
12:55 PM,50.0,26.6,40,30.07,10.0,NW,11.5,-,N/A,,Scattered Clouds,320,2013-03-29 16:55:00
1:55 PM,51.8,26.6,38,30.05,10.0,NNW,9.2,-,N/A,,Scattered Clouds,330,2013-03-29 17:55:00
2:55 PM,51.8,26.6,38,30.03,10.0,NW,8.1,-,N/A,,Mostly Cloudy,320,2013-03-29 18:55:00
3:45 PM,51.8,26.6,38,30.03,10.0,WNW,6.9,-,N/A,,Mostly Cloudy,300,2013-03-29 19:45:00
4:45 PM,50.0,26.6,40,30.03,10.0,NW,5.8,17.3,N/A,,Overcast,310,2013-03-29 20:45:00
5:45 PM,48.2,26.6,43,30.04,10.0,NNW,11.5,-,N/A,,Overcast,330,2013-03-29 21:45:00
6:45 PM,46.4,24.8,43,30.06,10.0,NNW,9.2,20.7,N/A,,Overcast,340,2013-03-29 22:45:00
7:45 PM,44.6,24.8,46,30.07,10.0,NNW,9.2,18.4,N/A,,Overcast,340,2013-03-29 23:45:00
9:15 PM,42.8,24.8,49,30.09,10.0,NNW,8.1,-,N/A,,Overcast,330,2013-03-30 01:15:00
9:35 PM,42.8,24.8,49,30.10,10.0,NW,4.6,-,N/A,,Overcast,310,2013-03-30 01:35:00
9:55 PM,42.8,24.8,49,30.10,10.0,NW,4.6,-,N/A,,Overcast,310,2013-03-30 01:55:00
10:15 PM,42.8,26.6,53,30.10,10.0,NNW,4.6,-,N/A,,Overcast,330,2013-03-30 02:15:00
10:35 PM,-9999,-9999,N/A,30.09,10.0,NW,4.6,-,N/A,,Mostly Cloudy,320,2013-03-30 02:35:00
11:15 PM,41.0,24.8,53,30.10,10.0,WNW,6.9,-,N/A,,Clear,300,2013-03-30 03:15:00
11:35 PM,39.2,24.8,56,30.10,10.0,NW,9.2,-,N/A,,Clear,320,2013-03-30 03:35:00
11:55 PM,39.2,26.6,61,30.10,10.0,NW,6.9,-,N/A,,Clear,320,2013-03-30 03:55:00